User: anonymous   Login
Location: Unspecified
(0.0000°N, 0.0000°E)
Time: 01:50:29
(UTC+00:00)
Language:

EUTE 65W - Orbit

View from above orbital plane
View from above orbital plane
View from above satellite
View from above satellite

Ground track
Ground track

The orbit is defined by the following mean orbital elements,

1 41382U          26145.49953831 +.00000000 +00000-0 +00000-0 0 00001
2 41382   0.0657  34.7616 0002446  21.8896 301.0747  1.00272819    07
Epoch (UTC): 25 May 2026 11:59:20
Eccentricity: 0.0002446
inclination: 0.0657°
perigee height: 35776 km
apogee height: 35797 km
right ascension of ascending node: 34.7616°
argument of perigee: 21.8896°
revolutions per day: 1.00272819
mean anomaly at epoch: 301.0747°

The dashed part of the orbit path shows where the satellite is in the earth's shadow,  

DLR